TimeEDT,TemperatureF,Dew PointF,Humidity,Sea Level PressureIn,VisibilityMPH,Wind Direction,Wind SpeedMPH,Gust SpeedMPH,PrecipitationIn,Events,Conditions,WindDirDegrees,DateUTC
12:53 AM,73.9,71.1,91,30.01,10.0,ESE,4.6,-,N/A,,Clear,110,2012-10-06 04:53:00
1:53 AM,73.0,70.0,90,30.00,10.0,East,3.5,-,N/A,,Clear,80,2012-10-06 05:53:00
2:53 AM,73.0,70.0,90,30.00,10.0,Calm,Calm,-,N/A,,Clear,0,2012-10-06 06:53:00
3:53 AM,72.0,69.1,91,29.99,10.0,Calm,Calm,-,N/A,,Clear,0,2012-10-06 07:53:00
4:53 AM,72.0,69.1,91,29.97,10.0,Calm,Calm,-,N/A,,Mostly Cloudy,0,2012-10-06 08:53:00
5:53 AM,70.0,68.0,93,29.98,10.0,Calm,Calm,-,N/A,,Clear,0,2012-10-06 09:53:00
6:32 AM,69.8,66.2,88,29.98,10.0,Calm,Calm,-,N/A,,Mostly Cloudy,0,2012-10-06 10:32:00
6:53 AM,71.1,68.0,90,29.99,10.0,Calm,Calm,-,N/A,,Scattered Clouds,0,2012-10-06 10:53:00
7:53 AM,69.1,66.0,90,29.99,10.0,Calm,Calm,-,N/A,Fog,Patches of Fog,0,2012-10-06 11:53:00
8:53 AM,73.0,69.1,87,30.00,10.0,Calm,Calm,-,N/A,Fog,Patches of Fog,0,2012-10-06 12:53:00
9:53 AM,78.8,71.6,78,30.01,10.0,Calm,Calm,-,N/A,,Scattered Clouds,0,2012-10-06 13:53:00
10:53 AM,81.0,71.1,72,30.01,10.0,NNW,5.8,-,N/A,,Scattered Clouds,330,2012-10-06 14:53:00
11:53 AM,84.0,70.0,63,30.00,10.0,North,8.1,-,N/A,,Scattered Clouds,350,2012-10-06 15:53:00
12:53 PM,87.1,68.0,53,29.99,10.0,NE,5.8,-,N/A,,Scattered Clouds,40,2012-10-06 16:53:00
1:53 PM,88.0,68.0,51,29.95,10.0,ENE,4.6,-,N/A,,Scattered Clouds,60,2012-10-06 17:53:00
2:53 PM,88.0,68.0,51,29.93,10.0,NNW,9.2,-,N/A,,Scattered Clouds,340,2012-10-06 18:53:00
3:53 PM,89.1,68.0,50,29.90,10.0,NNW,4.6,-,N/A,,Scattered Clouds,330,2012-10-06 19:53:00
4:53 PM,87.1,68.0,53,29.89,10.0,North,4.6,-,N/A,,Scattered Clouds,360,2012-10-06 20:53:00
5:53 PM,86.0,66.9,53,29.89,10.0,North,5.8,-,N/A,,Partly Cloudy,360,2012-10-06 21:53:00
6:53 PM,86.0,66.9,53,29.90,10.0,North,3.5,-,N/A,,Partly Cloudy,360,2012-10-06 22:53:00
7:53 PM,82.0,70.0,67,29.92,10.0,North,3.5,-,N/A,,Partly Cloudy,350,2012-10-06 23:53:00
8:53 PM,78.1,71.1,79,29.94,10.0,Calm,Calm,-,N/A,,Scattered Clouds,0,2012-10-07 00:53:00
9:53 PM,75.9,70.0,82,29.96,10.0,Calm,Calm,-,N/A,,Scattered Clouds,0,2012-10-07 01:53:00
10:53 PM,73.4,69.8,88,29.97,10.0,Calm,Calm,-,N/A,,Overcast,0,2012-10-07 02:53:00
11:53 PM,73.0,69.1,87,29.96,10.0,Calm,Calm,-,N/A,,Clear,0,2012-10-07 03:53:00